TimeMDT,TemperatureF,Dew PointF,Humidity,Sea Level PressureIn,VisibilityMPH,Wind Direction,Wind SpeedMPH,Gust SpeedMPH,PrecipitationIn,Events,Conditions,WindDirDegrees,DateUTC
12:14 AM,28.4,23.0,80,30.38,10.0,North,4.6,-,N/A,,Overcast,10,2012-10-26 06:14:00
12:52 AM,27.0,23.0,85,30.49,10.0,Calm,Calm,-,N/A,,Overcast,0,2012-10-26 06:52:00
1:52 AM,27.0,21.9,81,30.49,10.0,NE,5.8,-,N/A,,Overcast,40,2012-10-26 07:52:00
2:52 AM,27.0,21.9,81,30.50,10.0,NNE,4.6,-,N/A,,Overcast,20,2012-10-26 08:52:00
3:52 AM,26.1,21.9,84,30.51,10.0,ENE,3.5,-,N/A,,Overcast,60,2012-10-26 09:52:00
4:52 AM,26.1,21.9,84,30.51,10.0,Calm,Calm,-,N/A,,Overcast,0,2012-10-26 10:52:00
5:52 AM,26.1,21.9,84,30.53,10.0,ESE,3.5,-,N/A,,Overcast,120,2012-10-26 11:52:00
6:33 AM,26.6,21.2,80,30.42,10.0,ESE,3.5,-,N/A,,Overcast,120,2012-10-26 12:33:00
6:52 AM,26.1,21.9,84,30.53,10.0,Calm,Calm,-,N/A,,Overcast,0,2012-10-26 12:52:00
6:59 AM,26.6,21.2,80,30.42,10.0,East,4.6,-,N/A,,Overcast,90,2012-10-26 12:59:00
7:48 AM,26.6,21.2,80,30.42,10.0,Calm,Calm,-,N/A,,Overcast,0,2012-10-26 13:48:00
7:52 AM,26.1,21.9,84,30.53,10.0,West,3.5,-,N/A,,Overcast,270,2012-10-26 13:52:00
9:52 AM,28.9,21.0,72,30.54,10.0,WNW,8.1,-,N/A,,Overcast,290,2012-10-26 15:52:00
10:52 AM,30.9,23.0,72,30.53,10.0,WSW,15.0,18.4,N/A,,Mostly Cloudy,250,2012-10-26 16:52:00
11:52 AM,32.0,25.0,75,30.51,10.0,SW,11.5,-,N/A,,Overcast,230,2012-10-26 17:52:00
12:52 PM,34.0,25.0,70,30.48,10.0,West,10.4,-,N/A,,Overcast,260,2012-10-26 18:52:00
1:52 PM,35.1,27.0,72,30.43,10.0,SW,12.7,-,N/A,,Mostly Cloudy,230,2012-10-26 19:52:00
2:16 PM,37.4,26.6,65,30.33,10.0,SW,11.5,-,N/A,,Scattered Clouds,230,2012-10-26 20:16:00
2:52 PM,37.9,28.0,68,30.40,10.0,WSW,8.1,-,N/A,,Scattered Clouds,240,2012-10-26 20:52:00
3:52 PM,39.0,27.0,62,30.38,10.0,SW,10.4,17.3,N/A,,Scattered Clouds,230,2012-10-26 21:52:00
4:52 PM,37.9,27.0,65,30.37,10.0,SW,8.1,-,N/A,,Clear,230,2012-10-26 22:52:00
5:52 PM,33.1,26.1,75,30.35,10.0,South,6.9,-,N/A,,Clear,180,2012-10-26 23:52:00
6:52 PM,30.0,24.1,79,30.36,10.0,SSE,5.8,-,N/A,,Clear,160,2012-10-27 00:52:00
7:52 PM,26.1,23.0,88,30.36,10.0,East,3.5,-,N/A,,Clear,80,2012-10-27 01:52:00
8:52 PM,26.1,21.9,84,30.33,10.0,East,3.5,-,N/A,,Clear,100,2012-10-27 02:52:00
9:52 PM,30.0,25.0,82,30.31,10.0,South,6.9,-,N/A,,Clear,180,2012-10-27 03:52:00
10:52 PM,27.0,23.0,85,30.30,10.0,Calm,Calm,-,N/A,,Clear,0,2012-10-27 04:52:00
11:52 PM,30.0,25.0,82,30.27,10.0,South,6.9,-,N/A,,Clear,190,2012-10-27 05:52:00